weather.gov     
National Weather Service

Regional Weather Roundup
NWS Homepage
This page is being discontinued on March 12, 2014.
The same data is available at this site. Please update your bookmarks.
Thank you, and we apologize for the inconvenience.
Please send an email to SR-SRH.Webmaster@noaa.gov with any concerns.


Current Version
Previous Version:    01  02  03  04  05  06  07  08  09  10  11  12  13  14  15  16  17  18  19  20  21  22  23  24  25  26  27  
[Printable]
068
ASUS42 KCAE 190710
RWRCAE
REGIONAL WEATHER ROUNDUP
NATIONAL WEATHER SERVICE COLUMBIA SC
300 AM EDT SAT APR 19 2014

NOTE: "FAIR" INDICATES FEW OR NO CLOUDS BELOW 12,000 FEET WITH NO
SIGNIFICANT WEATHER AND/OR OBSTRUCTIONS TO VISIBILITY.

NOT ALL STATIONS ARE QUALITY CONTROLLED BY THE NATIONAL
WEATHER SERVICE. USE DATA WITH CAUTION...ESPECIALLY
DEWPOINT OBSERVATIONS.

SCZ001>056-GAZ040-063>065-077-190800-
...UPSTATE SOUTH CAROLINA...

CITY           SKY/WX    TMP DP  RH WIND       PRES   REMARKS
ANDERSON       CLOUDY    49  47  93 NE13G20   30.09F
LIBERTY        LGT RAIN  50  29  44 MISG      30.09F
SPARTANBURG    LGT RAIN  48  48 100 N15       30.11F
CLEMSON        LGT RAIN  52  49  89 NE6       30.10F
GREENVILLE     LGT RAIN  49  45  86 NE16G23   30.11F
GREENWOOD      LGT RAIN  50  47  89 NE13G21   30.09F
GREER          LGT RAIN  48  46  93 N12       30.10F
ROCK HILL      RAIN      48  47  96 NE10      30.12F FOG
CHESTER        LGT SNOW  52  52 100 N10       30.11F
LAURENS        DRIZZLE   50 N/A N/A N9G17     30.11F


...CENTRAL SOUTH CAROLINA...

CITY           SKY/WX    TMP DP  RH WIND       PRES   REMARKS
COLUMBIA APT   LGT RAIN  53  51  93 N8        30.04F FOG
COLUMBIA OWENS LGT RAIN  53  50  89 VRB3      30.05F FOG
DARLINGTON     CLOUDY    54  48  82 NE12      30.05F
FLORENCE       LGT RAIN  54  52  93 E15G28    30.00F FOG
MCENTIRE ANGB  LGT RAIN  52  52 100 N5        30.03F
ORANGEBURG     LGT RAIN  54  51  90 NE10      29.99F
SUMTER SHAW    LGT RAIN  52  51  96 N10       30.01F
NEWBERRY       LGT RAIN  50  50 100 N13       30.11S
AIKEN          RAIN      52  52 100 N15G24    30.04F
BARNWELL       LGT RAIN  54  52  94 NE13G18   29.99F
MANNING        CLOUDY    55 N/A N/A NE6       29.99F
CAMDEN         RAIN      50  50 100 NE12G18   30.05F
LANCASTER      LGT RAIN  50  50 100 N10       30.09F
WINNSBORO      RAIN      50  50 100 N8        30.05F


...EASTERN AND COASTAL SOUTH CAROLINA...

CITY           SKY/WX    TMP DP  RH WIND       PRES   REMARKS
MYRTLE BEACH   CLOUDY    55  54  94 NE14G21   30.00F
N MYRTLE BCH   LGT RAIN  54  52  93 NE15G25   30.02F
CONWAY         LGT RAIN  54  54 100 NE14G22   30.02F
MARION         LGT RAIN  54  52  94 NE16G26   30.02F
HARTSVILLE     CLOUDY    52  52 100 NE12G21   30.04F
FLORENCE       LGT RAIN  54  52  93 E15G28    30.00F FOG
DARLINGTON     CLOUDY    54  48  82 NE12      30.05F
CHARLESTON APT LGT RAIN  59  56  89 E14G22    29.94F FOG
MOUNT PLEASANT HVY RAIN N/A N/A N/A NE6       29.96F
WALTERBORO     DRIZZLE   55 N/A N/A NE8       29.97S
BEAUFORT       CLOUDY    60  58  92 E10       29.93F


...EASTERN GEORGIA...

CITY           SKY/WX    TMP DP  RH WIND       PRES   REMARKS
AUGUSTA BUSH F LGT RAIN  53  50  89 N12       30.01F FOG
AUGUSTA DANIEL LGT RAIN  53  51  93 N9        30.02F FOG
THOMSON        CLOUDY    50  50 100 NE12      30.06F
WASHINGTON     DRIZZLE   50 N/A N/A NE8G20    30.03F
CLAXTON        CLOUDY   N/A N/A N/A N6        29.94F
SYLVANIA       CLOUDY    57  55  91 NE9       29.96F
STATESBORO     CLOUDY    55  55 100 N6        29.94F
SAVANNAH       LGT RAIN  61  57  88 N8        29.92F FOG


...SOUTHERN NORTH CAROLINA...

CITY           SKY/WX    TMP DP  RH WIND       PRES   REMARKS
CHARLOTTE      RAIN      48  47  96 N13G20    30.13F FOG
MONROE         RAIN      50  47  89 NE14      30.10F FOG
WADESBORO      RAIN      50  49  97 N10       30.11F
ROCKINGHAM     RAIN      51  50  97 NE13G20   30.07F
RUTHERFORDTON  LGT RAIN  47  45  92 N9        30.15F
ASHEVILLE      LGT RAIN  47  45  93 N9        30.16F

$$




U.S. Dept. of Commerce
NOAA National Weather Service
1325 East West Highway
Silver Spring, MD 20910
E-mail: w-nws.webmaster@noaa.gov
Page last modified: May 16, 2007
NATIONAL WEATHER SERVICE: for Safety, for Work, for Fun - FOR LIFE